Weather Roundup
Issued by NWS Corpus Christi, TX

Home | Current Version | Previous Version | Text Only | Print | Product List | Glossary On
Versions: 1 2 3 4 5 6 7 8 9 10 11 12 13 14 15 16 17 18 19 20 21 22 23 24 25 26 27 28 29 30 31 32 33 34 35 36 37 38 39 40 41 42 43 44 45 46 47 48 49 50
000
ASUS44 KCRP 261010
HRRCRP

SOUTH TEXAS REGIONAL WEATHER ROUNDUP
NATIONAL WEATHER SERVICE CORPUS CHRISTI TX
500 AM CDT TUE MAY 26 2015


TXZ229>244-261100-
...CORPUS CHRISTI AREA OBSERVATIONS...

CITY           SKY/WX    TMP DP  RH WIND       PRES   REMARKS
CORPUS CHRISTI MOCLDY    79  76  90 SE15      29.89S
NAS CORPUS CHR CLOUDY    79  76  90 SE16      29.89F
ROCKPORT       CLEAR     80  75  84 SE15G22   29.89F
KINGSVILLE NAS CLOUDY    80  79  96 SE10      29.88S FOG
ALICE          CLOUDY    79  77  94 SE12      29.87F FOG
FALFURRIAS     CLOUDY    78  76  91 E7        29.87S
$$

...VICTORIA AREA OBSERVATIONS...

CITY           SKY/WX    TMP DP  RH WIND       PRES   REMARKS
VICTORIA       MOCLDY    70  70 100 NE7       29.93R
BEEVILLE       CLOUDY    73  73 100 E6        29.89S FOG
PLEASANTON     CLOUDY    71  68  88 CALM      29.90R
SAN ANTONIO    CLOUDY    73  69  87 E5        29.93R
$$

...LAREDO AREA OBSERVATIONS...

CITY           SKY/WX    TMP DP  RH WIND       PRES   REMARKS
LAREDO         MOCLDY    77  75  93 SE12      29.87R FOG
COTULLA        CLOUDY    78  74  87 SE10      29.87R
DEL RIO        CLOUDY    75  71  87 E7        29.87R
MCALLEN        CLOUDY    82  77  84 SE12      29.86R HX  90
HEBBRONVILLE     N/A     77  75  92 E10       29.89R FOG
$$

...OTHER TEXAS OBSERVATIONS...

CITY           SKY/WX    TMP DP  RH WIND       PRES   REMARKS
BROWNSVILLE    CLOUDY    79  76  90 SE12      29.87R
HOUSTON        TSTM      68  65  90 S6        29.97F
COL. STATION   CLOUDY    67  65  93 E5        29.94F
AUSTIN         CLOUDY    65  65 100 CALM      29.94R
WACO           FOG       65  64  97 SE8       29.94F VSB 3/4
FORT WORTH     CLOUDY    61  61 100 SE14      29.94R FOG
WICHITA FALLS  PTCLDY    58  57  97 S10       29.91R
LUBBOCK        PTCLDY    58  53  84 SW7       29.92R
EL PASO        CLEAR     65  37  35 CALM      30.02R
$$

...MARINE OBSERVATIONS...

STATION/POSITION TIME  SKY/WX   TEMP    WIND        PRES    VSBY  WAVE   SWELL
                                AIR SEA DIR/SP/G                  HT/PER HT/PER
                 (UTC)          (F)     (DEG/KT/KT) (MB)    (MI)  (FT/S) (FT/S)
PORT ARANSAS     1000            80 81  120/ 22/ 24 1012.3F
BUOY 90 E PORT A 0950            80 80  130/ 14/ 16 1014.2F         6/ 7   5/ 7
BUOY 45 SE BAFFI 0950            80 80  130/ 14/ 17 1011.8F         7/ 8   5/ 8
BUOY 200 E PT IS 0950            82 81  130/ 16/ 17 1014.8R         6/ 7
BUOY 15 E GALVES 0950            75 80   60/ 14/ 17 1014.9F         4/ 7   2/ 7
$$



USA.gov is the U.S. government's official web portal to all federal, state and local government web resources and services.